Regional Weather Roundup
Issued by NWS Cleveland, OH

Home | Current Version | Previous Version | Text Only | Print | Product List | Glossary Off
Versions: 1 2 3 4 5 6 7 8 9 10 11 12 13 14 15 16 17 18 19 20 21 22 23 24 25 26 27 28 29 30 31 32 33 34 35 36 37 38 39 40 41 42 43 44 45 46 47 48 49 50

674
ASUS41 KCLE 141102
RWRCLE
OHIO REGIONAL WEATHER ROUNDUP
NATIONAL WEATHER SERVICE CLEVELAND, OH
600 AM EST SUN FEB 14 2016

NOTE: "FAIR" INDICATES FEW OR NO CLOUDS BELOW 12,000 FEET WITH NO
SIGNIFICANT WEATHER AND/OR OBSTRUCTIONS TO VISIBILITY.

OHZ001>008-015>018-024>027-034-035-043-044-141200-
   NORTHWEST OHIO

CITY           SKY/WX    TMP DP  RH WIND       PRES   REMARKS
DEFIANCE       PTCLDY     8   2  76 CALM      30.47S
FINDLAY        CLOUDY     5   0  79 CALM      30.44F
TOLEDO EXPRESS CLOUDY     3  -1  83 CALM      30.46F
TOLEDO EXEC    CLOUDY     6  -2  69 CALM      30.48F
LIMA           CLOUDY     3  -2  79 E3        30.42F
$$

OHZ009>014-019>023-028>033-038-089-141200-
   NORTHEAST OHIO

CITY           SKY/WX    TMP DP  RH WIND       PRES   REMARKS
CLE-HOPKINS    CLOUDY     3  -1  83 S3        30.49S
CLE-LAKEFRONT  CLOUDY    14  -1  51 NW8       30.47S WCI   3
CUY CO. ARPT   NOT AVBL
LORAIN-ELYRIA  CLOUDY    -5  -9  83 CALM      30.47S
ASHTABULA      CLOUDY    11   2  67 N5        30.44F WCI   3
AKRON-CANTON   CLOUDY     1  -4  79 SW3       30.43R
WOOSTER        PTCLDY    -6 -10  83 CALM      30.44S
MANSFIELD      CLOUDY     2   1  96 CALM      30.41S FOG
YOUNGSTOWN     CLOUDY     0  -3  87 SW3       30.43R
$$

OHZ042-051>053-060>062-070>072-077>081-141200-
  SOUTHWEST OHIO

CITY           SKY/WX    TMP DP  RH WIND       PRES   REMARKS
CINC-COVINGTON CLOUDY    13   3  64 E9        30.45S WCI   1
CINC-LUNKEN    CLOUDY    13   4  67 NE3       30.51S
HAMILTON       CLOUDY    13   3  64 E5        30.50R WCI   5
DAYTON         CLOUDY     7   1  76 S7        30.46R WCI  -5
WRIGHT-PAT AFB CLOUDY     7   0  73 SW5       30.47R WCI  -2
DAYTON GENERAL CLOUDY     8  -1  66 CALM      30.45R
WILMINGTON     CLOUDY     5   0  79 CALM      30.45R
$$

OHZ036-037-039>041-045>050-054>059-063>069-073>076-082>088-141200-
  CENTRAL AND SOUTHEAST OHIO

CITY           SKY/WX    TMP DP  RH WIND       PRES   REMARKS
COLUMBUS       CLOUDY     3  -2  79 CALM      30.47R
OSU AIRPORT    CLOUDY     3  -1  83 CALM      30.45S
BOLTON FIELD   NOT AVBL
RICKENBACK AFB NOT AVBL
NEWARK         CLOUDY     0  -5  79 CALM      30.46R
MARION         CLOUDY     0  -6  76 E6        30.44F WCI -12
LANCASTER      CLOUDY    -1  -7  75 CALM      30.47R
ZANESVILLE     CLOUDY     0  -6  76 CALM      30.47R
NEW PHILLY     CLOUDY     0  32 100 CALM      30.48R
$$




USA.gov is the U.S. government's official web portal to all federal, state and local government web resources and services.